Regional Weather Roundup
Issued by NWS

Home | Current Version | Previous Version | Text Only | Print | Product List | Glossary On
Versions: 1 2 3 4 5 6 7 8 9 10 11 12 13 14 15 16 17 18 19 20 21 22 23 24 25 26 27 28 29 30 31 32 33 34 35 36 37 38 39 40 41 42 43 44 45 46 47 48 49 50
000
ASUS45 KBOU 302007
RWRCO

WEATHER ROUNDUP FOR COLORADO
NATIONAL WEATHER SERVICE DENVER/BOULDER CO
200 PM MDT SAT MAY 30 2015

NOTE: "FAIR" INDICATES FEW OR NO CLOUDS BELOW 12000 FEET WITH NO
SIGNIFICANT WEATHER AND/OR OBSTRUCTIONS TO VISIBILITY.

COZ001>005-013-030-031-302100-
...NORTHWEST COLORADO...

CITY           SKY/WX    TMP DP  RH WIND       PRES   REMARKS
CRAIG          SUNNY     72  38  29 W10       30.24F
HAYDEN         SUNNY     66  36  32 NW6G17    30.26F
MEEKER         MOSUNNY   71  35  26 VRB3      30.25F
MOUNT WERNER   NOT AVBL
STEAMBOAT SPGS MOSUNNY   65  36  34 W12       30.28F
WALDEN         MOSUNNY   61  30  31 SW6       30.33F
$$

COZ006>008-011-302100-
...WEST CENTRAL VALLEYS...

CITY           SKY/WX    TMP DP  RH WIND       PRES   REMARKS
GRAND JUNCTION MOSUNNY   77  36  22 CALM      30.18F
MONTROSE       SUNNY     76  30  18 N10       30.25F
EAGLE          MOSUNNY   75  36  23 CALM      30.27F
RIFLE          MOSUNNY   74  33  22 CALM      30.21F
DELTA          SUNNY     82  28  14 S7        30.20F
NUCLA          NOT AVBL
$$

COZ017>023-064>068-302100-
...SOUTHWEST COLORADO...

CITY           SKY/WX    TMP DP  RH WIND       PRES   REMARKS
DURANGO        SUNNY     71  31  22 VRB3      30.28F
CORTEZ         SUNNY     79  34  19 SW16G22   30.24F
PAGOSA SPRINGS SUNNY     69  25  18 SW10      30.34F
TELLURIDE      SUNNY     63  24  22 SW12      30.44S
WOLF CREEK PAS NOT AVBL
$$

COZ009-010-012-014-032>034-037-058>063-302100-
...CENTRAL COLORADO...

CITY           SKY/WX    TMP DP  RH WIND       PRES   REMARKS
ASPEN          SUNNY     68  33  27 N12G22    30.32F
BUENA VISTA    SUNNY     68  26  20 E7        30.30F
COPPER MTN     MOSUNNY   50  21  32 NW6G22    30.56S
BERTHOUD PASS  PTSUNNY   36  30  80 NW15G22   30.59S
COTTONWOOD PAS PTSUNNY   63  27  25 SE8G17    30.42F
GUNNISON       SUNNY     66  30  26 SW9       30.35F
KREMMLING      PTSUNNY   63  30  29 W6        30.31F
LEADVILLE      SUNNY     57  22  25 W10G21    30.42S
MONARCH PASS   SUNNY     45  23  42 SW24G33   30.66F
SALIDA         MOSUNNY   72  29  20 S5        30.35F
SUNLIGHT       SUNNY     52  30  43 CALM      30.53F
WILKERSON PASS SUNNY     55  27  33 SW6       30.53F
$$

COZ069>075-302100-
...SAN LUIS VALLEY/SANGRE DE CRISTO MOUNTAINS...

CITY           SKY/WX    TMP DP  RH WIND       PRES   REMARKS
ALAMOSA        SUNNY     67  28  23 E8        30.31F
LA VETA PASS   MOSUNNY  N/A N/A N/A MISG      30.47F
SAGUACHE       SUNNY     64  34  32 S9        30.34F
$$

COZ035-036-038>040-302100-
...NORTHERN COLORADO FRONT RANGE...

CITY           SKY/WX    TMP DP  RH WIND       PRES   REMARKS
DENVER INTL AP MOSUNNY   69  45  41 E8        30.23F
DMNS CITY PARK   N/A     71  41  33 NE7G13    30.21F
AURORA         MOSUNNY   69  45  41 E5        30.24F
FRONT RANGE AP NOT AVBL
ERIE MUNI ARPT SUNNY     69  41  36 CALM      30.23S
BOULDER MUN AP SUNNY     68  45  42 E8        30.22F
CENTENNIAL     MOSUNNY   69  37  30 CALM      30.24F
BROOMFIELD     MOSUNNY   68  45  42 E72       30.25F
FORT COLLINS   SUNNY     68  52  56 SE12      30.23F
LONGMONT       SUNNY     73  47  39 NE3       30.24F
$$

COZ041-046-047-076>085-087-088-302100-
...PIKES PEAK/PALMER DIVIDE AND SOUTHERN FOOTHILLS...

CITY           SKY/WX    TMP DP  RH WIND       PRES   REMARKS
COLO. SPRINGS  MOSUNNY   63  47  55 SE8       30.30F
A. F. ACADEMY  MOSUNNY   63  46  52 S8        30.29F
ELLICOTT       MOSUNNY  N/A N/A N/A S9        30.29F
FALCON         MOSUNNY   62  45  54 S5        30.33F
FORT CARSON    SUNNY     64  51  64 SE12      30.28F
LIMON          PTSUNNY   65  49  56 S12       30.27F
MONUMENT HILL  SUNNY     63  36  36 N6        30.31F
TRINIDAD       SUNNY     67  52  58 E10       30.26F
$$

COZ042>045-048>051-090-091-302100-
...NORTHEAST COLORADO...

CITY           SKY/WX    TMP DP  RH WIND       PRES   REMARKS
GREELEY ARPT   SUNNY     68  48  49 S9        30.23F
AKRON          MOSUNNY   60  49  66 E6        30.27F
BURLINGTON     PTSUNNY   58  47  66 N5        30.28F
WRAY           SUNNY     64  46  50 NE5       30.27F
STERLING       MOSUNNY   63  46  55 CALM      30.24F
HOLYOKE        SUNNY     64  45  48 NE5       30.27F
FORT MORGAN    SUNNY     65  46  51 SE7       30.25F
$$

COZ086-089-092>099-302100-
...SOUTHEAST COLORADO...

CITY           SKY/WX    TMP DP  RH WIND       PRES   REMARKS
PUEBLO         MOSUNNY   66  51  58 SE12      30.24F
LA JUNTA       MOSUNNY   67  49  52 SE8       30.24F
LAMAR          MOSUNNY   66  48  52 VRB3      30.24F
SPRINGFIELD      N/A     64  48  56 MISG      30.26F
$$


USA.gov is the U.S. government's official web portal to all federal, state and local government web resources and services.